Weather History for KFCM - November, 2013

Change the Weather History Date:

Tuesday, November 26, 2013

  Actual Average Record
Temperature  
Mean Temperature 22 °F -  
Max Temperature 30 °F 37 °F 57 °F (1998)
Min Temperature 14 °F 23 °F 10 °F (2010)
Degree Days  
Heating Degree Days 42    
Moisture  
Dew Point 7 °F    
Average Humidity 54    
Maximum Humidity 71    
Minimum Humidity 44    
Precipitation  
Precipitation 0.00 in - - ()
Sea Level Pressure  
Sea Level Pressure 30.26 in    
Wind  
Wind Speed 16 mph (NW)    
Max Wind Speed 23 mph    
Max Gust Speed 33 mph    
Visibility 10 miles    
Events      
Averages and records for this station are not official NWS values.
T = Trace of Precipitation, MM = Missing Value Source: NWS Daily Summary

Daily Weather History Graph

Daily Weather History Graph

Search for Another Location

Airport or City:

Trip Planner

Search our weather history database for the weather conditions in past years. The results will help you decide how hot, cold, wet, or windy it might be!

Date:

Astronomy

Nov. 26, 2013 Rise Set
Actual Time 7:25 AM CST 4:36 PM CST
Civil Twilight 6:53 AM CST 5:09 PM CST
Nautical Twilight 6:16 AM CST 5:45 PM CST
Astronomical Twilight 5:41 AM CST 6:20 PM CST
Moon 12:13 AM CST (11/26) 12:58 PM CST (11/26)
Length of Visible Light 10h 16m
Length of Day
9h 10m
Last Quarter, 41% of the Moon is Illuminated
Nov 26
Last Quarter
Dec 2
New
Dec 9
First Quarter
Dec 17
Full
Dec 25
Last Quarter

Hourly Weather History & Observations

Time (CST) Temp. Windchill Dew Point Humidity Pressure Visibility Wind Dir Wind Speed Gust Speed Precip Events Conditions
12:53 AM 30.0 °F 20.0 °F 19.0 °F 64% 30.10 in 10.0 mi WNW 12.7 mph 24.2 mph N/A   Overcast
1:53 AM 30.0 °F 18.7 °F 18.0 °F 61% 30.11 in 10.0 mi NW 16.1 mph 23.0 mph N/A   Overcast
2:53 AM 28.9 °F 15.8 °F 17.1 °F 61% 30.12 in 10.0 mi WNW 20.7 mph 25.3 mph N/A   Overcast
3:18 AM 28.4 °F 16.6 °F 15.8 °F 59% 30.09 in 10.0 mi WNW 16.1 mph 26.5 mph N/A   Overcast
3:53 AM 26.1 °F 11.3 °F 12.0 °F 55% 30.12 in 10.0 mi NW 23.0 mph 31.1 mph N/A   Overcast
4:53 AM 25.0 °F 13.6 °F 10.9 °F 55% 30.14 in 10.0 mi WNW 12.7 mph 23.0 mph N/A   Overcast
5:53 AM 23.0 °F 10.1 °F 8.1 °F 53% 30.16 in 10.0 mi WNW 15.0 mph 24.2 mph N/A   Scattered Clouds
6:53 AM 19.9 °F 3.2 °F 1.9 °F 46% 30.19 in 10.0 mi NNW 23.0 mph 28.8 mph N/A   Clear
7:53 AM 18.0 °F 0.9 °F 1.0 °F 48% 30.23 in 10.0 mi NNW 21.9 mph 33.4 mph N/A   Clear
8:53 AM 19.0 °F 3.6 °F 3.9 °F 52% 30.26 in 10.0 mi NNW 18.4 mph 28.8 mph N/A   Clear
9:53 AM 19.9 °F 4.8 °F 3.9 °F 50% 30.28 in 10.0 mi NNW 18.4 mph 28.8 mph N/A   Scattered Clouds
10:53 AM 21.0 °F 4.6 °F 3.0 °F 46% 30.28 in 10.0 mi NW 23.0 mph 31.1 mph N/A   Mostly Cloudy
11:53 AM 21.9 °F 7.8 °F 3.0 °F 44% 30.27 in 10.0 mi NW 17.3 mph 27.6 mph N/A   Mostly Cloudy
12:53 PM 21.9 °F 8.2 °F 3.0 °F 44% 30.27 in 10.0 mi NW 16.1 mph 25.3 mph N/A   Overcast
1:53 PM 21.0 °F 7.1 °F 3.9 °F 48% 30.28 in 10.0 mi NNW 16.1 mph 21.9 mph N/A   Overcast
2:53 PM 21.9 °F 8.2 °F 3.0 °F 44% 30.29 in 10.0 mi NNW 16.1 mph 27.6 mph N/A   Scattered Clouds
3:53 PM 19.9 °F 6.2 °F 3.0 °F 48% 30.31 in 10.0 mi NNW 15.0 mph 23.0 mph N/A   Clear
4:53 PM 19.9 °F 7.9 °F 3.9 °F 50% 30.33 in 10.0 mi NNW 11.5 mph - N/A   Scattered Clouds
5:53 PM 19.9 °F 5.7 °F 3.9 °F 50% 30.35 in 10.0 mi NNW 16.1 mph 24.2 mph N/A   Mostly Cloudy
6:53 PM 18.0 °F 6.1 °F 3.9 °F 54% 30.38 in 10.0 mi North 10.4 mph 19.6 mph N/A   Clear
7:53 PM 17.1 °F 5.0 °F 3.9 °F 56% 30.38 in 10.0 mi North 10.4 mph 19.6 mph N/A   Scattered Clouds
8:53 PM 17.1 °F 6.6 °F 5.0 °F 59% 30.39 in 10.0 mi NNW 8.1 mph - N/A   Clear
9:53 PM 16.0 °F 5.3 °F 6.1 °F 65% 30.39 in 10.0 mi NNW 8.1 mph - N/A   Clear
10:53 PM 15.1 °F 3.3 °F 6.1 °F 68% 30.40 in 10.0 mi North 9.2 mph - N/A   Clear
11:53 PM 14.0 °F 1.2 °F 6.1 °F 71% 30.41 in 10.0 mi North 10.4 mph - N/A   Clear